FW0639 Weather Reports


time (UTC)temp
C
wind
direction
speed
KPH
gust
KPH
rain 1hr
cm
rain 24hr
cm
rain mn
cm
humidity
%
barometer
mb
20260901220727 25 338 0.0 3.2 0.00 0.00 0.00 37 1006.3
20260901215717 25 339 0.0 3.2 0.00 0.00 0.00 31 1006.4
20260901214645 25 340 0.0 3.2 0.00 0.00 0.00 35 1006.4
20260901212500 26 30 0.0 1.6 0.00 0.00 0.00 33 1006.5
20260901211443 26 56 0.0 3.2 0.00 0.00 0.00 33 1006.5
20260901210501 26 59 0.0 4.8 0.00 0.00 0.00 32 1006.5
20260901205515 27 190 0.0 9.7 0.00 0.00 0.00 29 1006.5
20260901204533 27 191 0.0 3.2 0.00 0.00 0.00 27 1006.4
20260901203547 27 194 0.0 3.2 0.00 0.00 0.00 29 1006.5
20260901202533 27 194 0.0 6.4 0.00 0.00 0.00 29 1006.7
20260901201527 27 193 1.6 8.0 0.00 0.00 0.00 26 1006.8
20260901200455 27 194 1.6 8.0 0.00 0.00 0.00 26 1006.9
20260901195446 27 194 1.6 9.7 0.00 0.00 0.00 30 1006.9
20260901194452 26 194 0.0 9.7 0.00 0.00 0.00 30 1007.1
20260901193458 26 194 1.6 6.4 0.00 0.00 0.00 30 1007.3
20260901192514 26 194 0.0 8.0 0.00 0.00 0.00 27 1007.6
20260901191448 26 193 0.0 8.0 0.00 0.00 0.00 28 1007.7
20260901190432 26 190 1.6 11.3 0.00 0.00 0.00 26 1007.8
20260901185436 26 191 1.6 11.3 0.00 0.00 0.00 27 1007.8
20260901183322 25 193 0.0 1.6 0.00 0.00 0.00 30 1008.1
20260901181145 24 193 0.0 1.6 0.00 0.00 0.00 33 1008.5
20260901180156 23 323 0.0 3.2 0.00 0.00 0.00 34 1008.6
20260901175143 23 0 0.0 1.6 0.00 0.00 0.00 40 1008.8
20260901174149 23 355 0.0 12.9 0.00 0.00 0.00 38 1008.8
20260901173152 22 33 1.6 12.9 0.00 0.00 0.00 35 1009.0
20260901172129 21 345 0.0 0.0 0.00 0.00 0.00 41 1009.0
20260901171133 21 340 0.0 0.0 0.00 0.00 0.00 42 1009.1
20260901165027 19 337 0.0 4.8 0.00 0.00 0.00 44 1009.2
20260901164036 18 336 0.0 9.7 0.00 0.00 0.00 47 1009.4
20260901163015 18 336 0.0 9.7 0.00 0.00 0.00 49 1009.4
20260901162004 18 336 0.0 3.2 0.00 0.00 0.00 51 1009.5
20260901161016 18 336 0.0 0.0 0.00 0.00 0.00 57 1009.5
20260901160016 18 336 0.0 0.0 0.00 0.00 0.00 54 1009.6
20260901155040 18 336 0.0 4.8 0.00 0.00 0.00 55 1009.6
20260901154051 18 337 1.6 4.8 0.00 0.00 0.00 50 1009.7
20260901153019 18 337 3.2 6.4 0.00 0.00 0.00 52 1009.7
20260901152020 17 336 1.6 6.4 0.00 0.00 0.00 51 1009.7
20260901151040 16 336 3.2 6.4 0.00 0.00 0.00 52 1009.9
20260901150014 15 192 3.2 4.8 0.00 0.00 0.00 56 1010.0
20260901145007 15 192 1.6 4.8 0.00 0.00 0.00 57 1010.0
20260901143949 14 193 1.6 4.8 0.00 0.00 0.00 60 1010.2
20260901142916 13 193 1.6 4.8 0.00 0.00 0.00 61 1010.3
20260901140838 12 193 3.2 6.4 0.00 0.00 0.00 65 1010.2
20260901135857 11 193 1.6 6.4 0.00 0.00 0.00 66 1010.3
20260901134904 11 193 1.6 6.4 0.00 0.00 0.00 68 1010.4
20260901133842 10 193 0.0 4.8 0.00 0.00 0.00 70 1010.4
20260901132853 10 193 0.0 4.8 0.00 0.00 0.00 70 1010.4
20260901124514 9 193 0.0 0.0 0.00 0.00 0.00 73 1010.3
20260901123502 9 193 0.0 0.0 0.00 0.00 0.00 75 1010.3
20260901122501 9 193 0.0 0.0 0.00 0.00 0.00 75 1010.2
20260901121447 9 193 0.0 0.0 0.00 0.00 0.00 76 1010.2
20260901120509 9 193 0.0 0.0 0.00 0.00 0.00 75 1010.2
20260901115517 9 193 0.0 0.0 0.00 0.00 0.00 76 1010.2
20260901113315 9 193 0.0 0.0 0.00 0.00 0.00 77 1010.5
20260901112317 9 193 0.0 0.0 0.00 0.00 0.00 75 1010.5
20260901110229 10 193 0.0 0.0 0.00 0.00 0.00 74 1010.8
20260901105212 10 193 0.0 0.0 0.00 0.00 0.00 72 1010.9
20260901104205 10 193 0.0 0.0 0.00 0.00 0.00 71 1010.9
20260901103137 10 193 0.0 0.0 0.00 0.00 0.00 72 1011.1
20260901102135 10 193 0.0 0.0 0.00 0.00 0.00 70 1011.2
20260901101137 10 193 0.0 0.0 0.00 0.00 0.00 69 1011.2
20260901100154 11 193 0.0 3.2 0.00 0.00 0.00 69 1011.2
20260901095141 11 193 0.0 0.0 0.00 0.00 0.00 69 1011.3
20260901094132 11 193 0.0 0.0 0.00 0.00 0.00 69 1011.0
20260901092016 10 193 0.0 0.0 0.00 0.00 0.00 70 1011.2
20260901091012 10 193 0.0 0.0 0.00 0.00 0.00 72 1011.2
20260901085958 10 193 0.0 0.0 0.00 0.00 0.00 73 1011.3
20260901084948 10 193 0.0 0.0 0.00 0.00 0.00 73 1011.4
20260901082803 11 193 0.0 0.0 0.00 0.00 0.00 71 1011.5
20260901080616 11 193 0.0 0.0 0.00 0.00 0.00 68 1011.7
20260901072251 12 193 0.0 0.0 0.00 0.00 0.00 63 1012.3
20260901071259 13 193 0.0 0.0 0.00 0.00 0.00 62 1012.2
20260901070254 13 193 0.0 1.6 0.00 0.00 0.00 60 1012.3
20260901065239 13 193 0.0 0.0 0.00 0.00 0.00 59 1012.2
20260901063144 13 193 0.0 3.2 0.00 0.00 0.00 57 1012.3
20260901062133 13 193 0.0 3.2 0.00 0.00 0.00 57 1012.4
20260901061106 14 193 0.0 0.0 0.00 0.00 0.00 57 1012.5
20260901060121 14 193 0.0 0.0 0.00 0.00 0.00 58 1012.5
20260901055117 14 193 0.0 9.7 0.00 0.00 0.00 57 1012.6
20260901052914 13 193 0.0 6.4 0.00 0.00 0.00 58 1012.7
20260901051915 13 193 0.0 4.8 0.00 0.00 0.00 59 1012.6
20260901050857 13 193 0.0 0.0 0.00 0.00 0.00 59 1012.6
20260901045843 13 193 0.0 6.4 0.00 0.00 0.00 59 1012.7
20260901044816 13 193 0.0 0.0 0.00 0.00 0.00 60 1012.7
20260901043839 13 193 0.0 0.0 0.00 0.00 0.00 59 1012.7
20260901042901 13 193 0.0 0.0 0.00 0.00 0.00 61 1012.7
20260901040726 12 193 0.0 1.6 0.00 0.00 0.00 68 1012.7
20260901035739 13 193 0.0 0.0 0.00 0.00 0.00 66 1012.8
20260901034801 13 193 0.0 0.0 0.00 0.00 0.00 66 1012.7
20260901033808 13 355 0.0 0.0 0.00 0.00 0.00 65 1012.7
20260901032755 14 349 0.0 0.0 0.00 0.00 0.00 63 1012.6
20260901031819 15 348 0.0 0.0 0.00 0.00 0.00 61 1012.6
20260901030823 15 343 0.0 0.0 0.00 0.00 0.00 59 1012.5
20260901025832 16 343 0.0 0.0 0.00 0.00 0.00 57 1012.4
20260901024823 17 341 0.0 0.0 0.00 0.00 0.00 53 1012.2
20260901023811 17 340 0.0 0.0 0.00 0.00 0.00 48 1011.9
20260901022754 18 338 0.0 0.0 0.00 0.00 0.00 45 1011.7
20260901021737 18 338 0.0 0.0 0.00 0.00 0.00 42 1011.5
20260901020719 19 338 0.0 0.0 0.00 0.00 0.00 45 1011.5
20260901015652 20 337 0.0 0.0 0.00 0.00 0.00 44 1011.5
20260901014640 20 337 0.0 0.0 0.00 0.00 0.00 41 1011.4
20260901013639 20 336 0.0 0.0 0.00 0.00 0.00 40 1011.2
20260901011504 21 336 0.0 0.0 0.00 0.00 0.00 36 1011.2
20260901010437 22 337 0.0 0.0 0.00 0.00 0.00 37 1011.2
20260901005428 22 337 0.0 0.0 0.00 0.00 0.00 36 1011.3
20260901004418 22 337 0.0 0.0 0.00 0.00 0.00 37 1011.3
20260901003427 22 337 0.0 1.6 0.00 0.00 0.00 36 1011.3
20260901001248 22 337 0.0 0.0 0.00 0.00 0.00 40 1011.4
20260901000251 22 337 0.0 0.0 0.00 0.00 0.00 38 1011.5
20260831235225 22 338 0.0 4.8 0.00 0.00 0.00 34 1011.6
20260831234241 22 344 0.0 3.2 0.00 0.00 0.00 38 1011.5
20260831233242 22 192 0.0 6.4 0.00 0.00 0.00 35 1011.7
20260831232225 23 193 0.0 6.4 0.00 0.00 0.00 35 1011.8
20260831231237 23 193 0.0 6.4 0.00 0.00 0.00 35 1011.8
20260831230247 23 193 0.0 6.4 0.00 0.00 0.00 35 1011.9
20260831222942 23 193 0.0 3.2 0.00 0.00 0.00 37 1012.1